Year,Month,Day,Hour,Minute,Value (Times are PST for temperature in C)
2013,10,16,00,00,6.80
2013,10,16,00,01,6.80
2013,10,16,00,02,6.80
2013,10,16,00,03,6.80
2013,10,16,00,04,6.90
2013,10,16,00,05,6.90
2013,10,16,00,06,6.90
2013,10,16,00,07,6.90
2013,10,16,00,08,6.90
2013,10,16,00,09,6.90
2013,10,16,00,10,6.80
2013,10,16,00,11,6.80
2013,10,16,00,12,6.80
2013,10,16,00,13,6.90
2013,10,16,00,14,6.90
2013,10,16,00,15,6.90
2013,10,16,00,16,6.90
2013,10,16,00,17,6.90
2013,10,16,00,18,6.90
2013,10,16,00,19,7.00
2013,10,16,00,20,7.00
2013,10,16,00,21,7.00
2013,10,16,00,22,7.00
2013,10,16,00,23,7.10
2013,10,16,00,24,7.20
2013,10,16,00,25,7.20
2013,10,16,00,26,7.20
2013,10,16,00,27,7.20
2013,10,16,00,28,7.30
2013,10,16,00,29,7.30
2013,10,16,00,30,7.20
2013,10,16,00,31,7.20
2013,10,16,00,32,7.30
2013,10,16,00,33,7.30
2013,10,16,00,34,7.30
2013,10,16,00,35,7.30
2013,10,16,00,36,7.30
2013,10,16,00,37,7.20
2013,10,16,00,38,7.20
2013,10,16,00,39,7.20
2013,10,16,00,40,7.20
2013,10,16,00,41,7.20
2013,10,16,00,42,7.20
2013,10,16,00,43,7.20
2013,10,16,00,44,7.20
2013,10,16,00,45,7.20
2013,10,16,00,46,7.20
2013,10,16,00,47,7.30
2013,10,16,00,48,7.30
2013,10,16,00,49,7.30
2013,10,16,00,50,7.30
2013,10,16,00,51,7.30
2013,10,16,00,52,7.30
2013,10,16,00,53,7.30
2013,10,16,00,54,7.30
2013,10,16,00,55,7.30
2013,10,16,00,56,7.30
2013,10,16,00,57,7.20
2013,10,16,00,58,7.20
2013,10,16,00,59,7.20
2013,10,16,01,00,7.20
2013,10,16,01,01,7.20
2013,10,16,01,02,7.20
2013,10,16,01,03,7.20
2013,10,16,01,04,7.20
2013,10,16,01,05,7.30
2013,10,16,01,06,7.30
2013,10,16,01,07,7.30
2013,10,16,01,08,7.30
2013,10,16,01,09,7.30
2013,10,16,01,10,7.30
2013,10,16,01,11,7.30
2013,10,16,01,12,7.30
2013,10,16,01,13,7.30
2013,10,16,01,14,7.30
2013,10,16,01,15,7.30
2013,10,16,01,16,7.30
2013,10,16,01,17,7.30
2013,10,16,01,18,7.30
2013,10,16,01,19,7.30
2013,10,16,01,20,7.40
2013,10,16,01,21,7.40
2013,10,16,01,22,7.50
2013,10,16,01,23,7.50
2013,10,16,01,24,7.60
2013,10,16,01,25,7.70
2013,10,16,01,26,7.70
2013,10,16,01,27,7.70
2013,10,16,01,28,7.70
2013,10,16,01,29,7.70
2013,10,16,01,30,7.60
2013,10,16,01,31,7.60
2013,10,16,01,32,7.60
2013,10,16,01,33,7.70
2013,10,16,01,34,7.70
2013,10,16,01,35,7.70
2013,10,16,01,36,7.70
2013,10,16,01,37,7.70
2013,10,16,01,38,7.70
2013,10,16,01,39,7.70
2013,10,16,01,40,7.70
2013,10,16,01,41,7.70
2013,10,16,01,42,7.80
2013,10,16,01,43,7.80
2013,10,16,01,44,8.00
2013,10,16,01,45,8.30
2013,10,16,01,46,8.50
2013,10,16,01,47,8.70
2013,10,16,01,48,8.90
2013,10,16,01,49,9.00
2013,10,16,01,50,9.20
2013,10,16,01,51,9.30
2013,10,16,01,52,9.40
2013,10,16,01,53,9.50
2013,10,16,01,54,9.70
2013,10,16,01,55,9.90
2013,10,16,01,56,10.10
2013,10,16,01,57,10.20
2013,10,16,01,58,10.30
2013,10,16,01,59,10.30
2013,10,16,02,00,10.30
2013,10,16,02,01,10.30
2013,10,16,02,02,10.40
2013,10,16,02,03,10.50
2013,10,16,02,04,10.60
2013,10,16,02,05,10.60
2013,10,16,02,06,10.80
2013,10,16,02,07,10.80
2013,10,16,02,08,10.80
2013,10,16,02,09,10.80
2013,10,16,02,10,10.70
2013,10,16,02,11,10.70
2013,10,16,02,12,10.70
2013,10,16,02,13,10.70
2013,10,16,02,14,10.60
2013,10,16,02,15,10.60
2013,10,16,02,16,10.60
2013,10,16,02,17,10.50
2013,10,16,02,18,10.50
2013,10,16,02,19,10.40
2013,10,16,02,20,10.40
2013,10,16,02,21,10.40
2013,10,16,02,22,10.30
2013,10,16,02,23,10.30
2013,10,16,02,24,10.30
2013,10,16,02,25,10.40
2013,10,16,02,26,10.40
2013,10,16,02,27,10.50
2013,10,16,02,28,10.50
2013,10,16,02,29,10.60
2013,10,16,02,30,10.70
2013,10,16,02,31,10.80
2013,10,16,02,32,10.90
2013,10,16,02,33,11.00
2013,10,16,02,34,11.10
2013,10,16,02,35,11.10
2013,10,16,02,36,11.00
2013,10,16,02,37,11.00
2013,10,16,02,38,11.10
2013,10,16,02,39,11.20
2013,10,16,02,40,11.30
2013,10,16,02,41,11.40
2013,10,16,02,42,11.40
2013,10,16,02,43,11.40
2013,10,16,02,44,11.40
2013,10,16,02,45,11.40
2013,10,16,02,46,11.40
2013,10,16,02,47,11.40
2013,10,16,02,48,11.40
2013,10,16,02,49,11.40
2013,10,16,02,50,11.40
2013,10,16,02,51,11.40
2013,10,16,02,52,11.40
2013,10,16,02,53,11.40
2013,10,16,02,54,11.40
2013,10,16,02,55,11.40
2013,10,16,02,56,11.40
2013,10,16,02,57,11.40
2013,10,16,02,58,11.40
2013,10,16,02,59,11.40
2013,10,16,03,00,11.30
2013,10,16,03,01,11.30
2013,10,16,03,02,11.30
2013,10,16,03,03,11.30
2013,10,16,03,04,11.20
2013,10,16,03,05,11.20
2013,10,16,03,06,11.10
2013,10,16,03,07,11.10
2013,10,16,03,08,11.10
2013,10,16,03,09,11.10
2013,10,16,03,10,11.10
2013,10,16,03,11,11.10
2013,10,16,03,12,11.10
2013,10,16,03,13,11.10
2013,10,16,03,14,11.10
2013,10,16,03,15,11.10
2013,10,16,03,16,11.10
2013,10,16,03,17,11.10
2013,10,16,03,18,11.10
2013,10,16,03,19,11.10
2013,10,16,03,20,11.20
2013,10,16,03,21,11.20
2013,10,16,03,22,11.20
2013,10,16,03,23,11.30
2013,10,16,03,24,11.30
2013,10,16,03,25,11.30
2013,10,16,03,26,11.30
2013,10,16,03,27,11.30
2013,10,16,03,28,11.30
2013,10,16,03,29,11.30
2013,10,16,03,30,11.40
2013,10,16,03,31,11.30
2013,10,16,03,32,11.30
2013,10,16,03,33,11.30
2013,10,16,03,34,11.30
2013,10,16,03,35,11.30
2013,10,16,03,36,11.30
2013,10,16,03,37,11.20
2013,10,16,03,38,11.20
2013,10,16,03,39,11.10
2013,10,16,03,40,11.10
2013,10,16,03,41,11.00
2013,10,16,03,42,11.00
2013,10,16,03,43,11.00
2013,10,16,03,44,11.10
2013,10,16,03,45,11.20
2013,10,16,03,46,11.30
2013,10,16,03,47,11.30
2013,10,16,03,48,11.30
2013,10,16,03,49,11.30
2013,10,16,03,50,11.30
2013,10,16,03,51,11.40
2013,10,16,03,52,11.30
2013,10,16,03,53,11.30
2013,10,16,03,54,11.30
2013,10,16,03,55,11.30
2013,10,16,03,56,11.30
2013,10,16,03,57,11.30
2013,10,16,03,58,11.30
2013,10,16,03,59,11.30
2013,10,16,04,00,11.30
2013,10,16,04,01,11.30
2013,10,16,04,02,11.30
2013,10,16,04,03,11.30
2013,10,16,04,04,11.30
2013,10,16,04,05,11.30
2013,10,16,04,06,11.20
2013,10,16,04,07,11.20
2013,10,16,04,08,11.20
2013,10,16,04,09,11.10
2013,10,16,04,10,11.10
2013,10,16,04,11,11.10
2013,10,16,04,12,11.10
2013,10,16,04,13,11.00
2013,10,16,04,14,11.00
2013,10,16,04,15,11.10
2013,10,16,04,16,11.00
2013,10,16,04,17,11.00
2013,10,16,04,18,11.00
2013,10,16,04,19,11.10
2013,10,16,04,20,11.00
2013,10,16,04,21,11.00
2013,10,16,04,22,11.10
2013,10,16,04,23,11.10
2013,10,16,04,24,11.00
2013,10,16,04,25,11.00
2013,10,16,04,26,11.00
2013,10,16,04,27,11.10
2013,10,16,04,28,11.00
2013,10,16,04,29,11.00
2013,10,16,04,30,11.00
2013,10,16,04,31,11.00
2013,10,16,04,32,11.00
2013,10,16,04,33,11.00
2013,10,16,04,34,11.00
2013,10,16,04,35,10.90
2013,10,16,04,36,10.90
2013,10,16,04,37,10.90
2013,10,16,04,38,10.90
2013,10,16,04,39,10.90
2013,10,16,04,40,10.90
2013,10,16,04,41,10.80
2013,10,16,04,42,10.80
2013,10,16,04,43,10.80
2013,10,16,04,44,10.80
2013,10,16,04,45,10.90
2013,10,16,04,46,11.00
2013,10,16,04,47,11.00
2013,10,16,04,48,11.10
2013,10,16,04,49,11.10
2013,10,16,04,50,11.10
2013,10,16,04,51,11.10
2013,10,16,04,52,11.10
2013,10,16,04,53,11.20
2013,10,16,04,54,11.20
2013,10,16,04,55,11.20
2013,10,16,04,56,11.20
2013,10,16,04,57,11.20
2013,10,16,04,58,11.20
2013,10,16,04,59,11.10
2013,10,16,05,00,11.10
2013,10,16,05,01,11.00
2013,10,16,05,02,11.00
2013,10,16,05,03,10.90
2013,10,16,05,04,10.90
2013,10,16,05,05,10.90
2013,10,16,05,06,11.00
2013,10,16,05,07,11.10
2013,10,16,05,08,11.10
2013,10,16,05,09,11.10
2013,10,16,05,10,11.10
2013,10,16,05,11,11.10
2013,10,16,05,12,11.10
2013,10,16,05,13,11.10
2013,10,16,05,14,11.10
2013,10,16,05,15,11.10
2013,10,16,05,16,11.20
2013,10,16,05,17,11.20
2013,10,16,05,18,11.20
2013,10,16,05,19,11.20
2013,10,16,05,20,11.30
2013,10,16,05,21,11.30
2013,10,16,05,22,11.30
2013,10,16,05,23,11.30
2013,10,16,05,24,11.30
2013,10,16,05,25,11.30
2013,10,16,05,26,11.30
2013,10,16,05,27,11.40
2013,10,16,05,28,11.40
2013,10,16,05,29,11.40
2013,10,16,05,30,11.40
2013,10,16,05,31,11.40
2013,10,16,05,32,11.40
2013,10,16,05,33,11.40
2013,10,16,05,34,11.40
2013,10,16,05,35,11.40
2013,10,16,05,36,11.30
2013,10,16,05,37,11.30
2013,10,16,05,38,11.30
2013,10,16,05,39,11.30
2013,10,16,05,40,11.30
2013,10,16,05,41,11.30
2013,10,16,05,42,11.20
2013,10,16,05,43,11.20
2013,10,16,05,44,11.30
2013,10,16,05,45,11.20
2013,10,16,05,46,11.20
2013,10,16,05,47,11.20
2013,10,16,05,48,11.10
2013,10,16,05,49,11.10
2013,10,16,05,50,11.00
2013,10,16,05,51,11.00
2013,10,16,05,52,10.90
2013,10,16,05,53,10.90
2013,10,16,05,54,10.90
2013,10,16,05,55,10.90
2013,10,16,05,56,10.90
2013,10,16,05,57,10.80
2013,10,16,05,58,10.80
2013,10,16,05,59,10.80
2013,10,16,06,00,10.80
2013,10,16,06,01,10.80
2013,10,16,06,02,10.80
2013,10,16,06,03,10.90
2013,10,16,06,04,10.90
2013,10,16,06,05,10.90
2013,10,16,06,06,10.80
2013,10,16,06,07,10.80
2013,10,16,06,08,10.80
2013,10,16,06,09,10.70
2013,10,16,06,10,10.70
2013,10,16,06,11,10.80
2013,10,16,06,12,10.80
2013,10,16,06,13,10.80
2013,10,16,06,14,10.80
2013,10,16,06,15,10.80
2013,10,16,06,16,10.70
2013,10,16,06,17,10.60
2013,10,16,06,18,10.60
2013,10,16,06,19,10.60
2013,10,16,06,20,10.70
2013,10,16,06,21,10.70
2013,10,16,06,22,10.70
2013,10,16,06,23,10.70
2013,10,16,06,24,10.70
2013,10,16,06,25,10.70
2013,10,16,06,26,10.70
2013,10,16,06,27,10.70
2013,10,16,06,28,10.60
2013,10,16,06,29,10.60
2013,10,16,06,30,10.70
2013,10,16,06,31,10.70
2013,10,16,06,32,10.70
2013,10,16,06,33,10.60
2013,10,16,06,34,10.60
2013,10,16,06,35,10.60
2013,10,16,06,36,10.60
2013,10,16,06,37,10.70
2013,10,16,06,38,10.70
2013,10,16,06,39,10.80
2013,10,16,06,40,10.80
2013,10,16,06,41,10.80
2013,10,16,06,42,10.80
2013,10,16,06,43,10.80
2013,10,16,06,44,10.80
2013,10,16,06,45,10.80
2013,10,16,06,46,10.80
2013,10,16,06,47,10.80
2013,10,16,06,48,10.90
2013,10,16,06,49,10.90
2013,10,16,06,50,10.90
2013,10,16,06,51,10.90
2013,10,16,06,52,10.90
2013,10,16,06,53,11.00
2013,10,16,06,54,10.90
2013,10,16,06,55,10.90
2013,10,16,06,56,10.90
2013,10,16,06,57,10.90
2013,10,16,06,58,10.90
2013,10,16,06,59,10.90
2013,10,16,07,00,10.80
2013,10,16,07,01,10.80
2013,10,16,07,02,10.70
2013,10,16,07,03,10.60
2013,10,16,07,04,10.60
2013,10,16,07,05,10.60
2013,10,16,07,06,10.50
2013,10,16,07,07,10.50
2013,10,16,07,08,10.50
2013,10,16,07,09,10.50
2013,10,16,07,10,10.40
2013,10,16,07,11,10.40
2013,10,16,07,12,10.40
2013,10,16,07,13,10.30
2013,10,16,07,14,10.30
2013,10,16,07,15,10.30
2013,10,16,07,16,10.30
2013,10,16,07,17,10.30
2013,10,16,07,18,10.20
2013,10,16,07,19,10.20
2013,10,16,07,20,10.10
2013,10,16,07,21,10.10
2013,10,16,07,22,10.00
2013,10,16,07,23,10.00
2013,10,16,07,24,9.90
2013,10,16,07,25,9.90
2013,10,16,07,26,9.80
2013,10,16,07,27,9.70
2013,10,16,07,28,9.70
2013,10,16,07,29,9.60
2013,10,16,07,30,9.50
2013,10,16,07,31,9.50
2013,10,16,07,32,9.40
2013,10,16,07,33,9.30
2013,10,16,07,34,9.30
2013,10,16,07,35,9.20
2013,10,16,07,36,9.10
2013,10,16,07,37,9.10
2013,10,16,07,38,9.10
2013,10,16,07,39,9.00
2013,10,16,07,40,8.90
2013,10,16,07,41,8.80
2013,10,16,07,42,8.80
2013,10,16,07,43,8.70
2013,10,16,07,44,8.70
2013,10,16,07,45,8.60
2013,10,16,07,46,8.60
2013,10,16,07,47,8.60
2013,10,16,07,48,8.50
2013,10,16,07,49,8.50
2013,10,16,07,50,8.40
2013,10,16,07,51,8.40
2013,10,16,07,52,8.40
2013,10,16,07,53,8.40
2013,10,16,07,54,8.30
2013,10,16,07,55,8.30
2013,10,16,07,56,8.30
2013,10,16,07,57,8.30
2013,10,16,07,58,8.30
2013,10,16,07,59,8.30
2013,10,16,08,00,8.30
2013,10,16,08,01,8.20
2013,10,16,08,02,8.20
2013,10,16,08,03,8.20
2013,10,16,08,04,8.20
2013,10,16,08,05,8.20
2013,10,16,08,06,8.20
2013,10,16,08,07,8.20
2013,10,16,08,08,8.20
2013,10,16,08,09,8.20
2013,10,16,08,10,8.20
2013,10,16,08,11,8.20
2013,10,16,08,12,8.20
2013,10,16,08,13,8.30
2013,10,16,08,14,8.20
2013,10,16,08,15,8.30
2013,10,16,08,16,8.30
2013,10,16,08,17,8.30
2013,10,16,08,18,8.30
2013,10,16,08,19,8.30
2013,10,16,08,20,8.30
2013,10,16,08,21,8.30
2013,10,16,08,22,8.30
2013,10,16,08,23,8.30
2013,10,16,08,24,8.30
2013,10,16,08,25,8.40
2013,10,16,08,26,8.40
2013,10,16,08,27,8.40
2013,10,16,08,28,8.40
2013,10,16,08,29,8.50
2013,10,16,08,30,8.50
2013,10,16,08,31,8.60
2013,10,16,08,32,8.70
2013,10,16,08,33,8.70
2013,10,16,08,34,8.80
2013,10,16,08,35,8.80
2013,10,16,08,36,8.80
2013,10,16,08,37,8.80
2013,10,16,08,38,8.80
2013,10,16,08,39,8.70
2013,10,16,08,40,8.70
2013,10,16,08,41,8.70
2013,10,16,08,42,8.60
2013,10,16,08,43,8.60
2013,10,16,08,44,8.60
2013,10,16,08,45,8.50
2013,10,16,08,46,8.40
2013,10,16,08,47,8.40
2013,10,16,08,48,8.40
2013,10,16,08,49,8.30
2013,10,16,08,50,8.30
2013,10,16,08,51,8.30
2013,10,16,08,52,8.30
2013,10,16,08,53,8.20
2013,10,16,08,54,8.20
2013,10,16,08,55,8.20
2013,10,16,08,56,8.20
2013,10,16,08,57,8.20
2013,10,16,08,58,8.20
2013,10,16,08,59,8.20
2013,10,16,09,00,8.20
2013,10,16,09,01,8.10
2013,10,16,09,02,8.10
2013,10,16,09,03,8.10
2013,10,16,09,04,8.10
2013,10,16,09,05,8.00
2013,10,16,09,06,8.00
2013,10,16,09,07,8.00
2013,10,16,09,08,8.00
2013,10,16,09,09,8.00
2013,10,16,09,10,8.00
2013,10,16,09,11,8.00
2013,10,16,09,12,8.00
2013,10,16,09,13,8.00
2013,10,16,09,14,8.00
2013,10,16,09,15,8.00
2013,10,16,09,16,7.90
2013,10,16,09,17,7.90
2013,10,16,09,18,7.90
2013,10,16,09,19,7.90
2013,10,16,09,20,7.90
2013,10,16,09,21,8.00
2013,10,16,09,22,8.00
2013,10,16,09,23,8.10
2013,10,16,09,24,8.00
2013,10,16,09,25,8.00
2013,10,16,09,26,8.00
2013,10,16,09,27,7.90
2013,10,16,09,28,7.90
2013,10,16,09,29,7.90
2013,10,16,09,30,7.90
2013,10,16,09,31,7.90
2013,10,16,09,32,7.90
2013,10,16,09,33,7.90
2013,10,16,09,34,7.90
2013,10,16,09,35,7.90
2013,10,16,09,36,7.90
2013,10,16,09,37,7.90
2013,10,16,09,38,7.90
2013,10,16,09,39,7.90
2013,10,16,09,40,7.90
2013,10,16,09,41,7.90
2013,10,16,09,42,7.90
2013,10,16,09,43,7.90
2013,10,16,09,44,7.90
2013,10,16,09,45,7.90
2013,10,16,09,46,7.90
2013,10,16,09,47,7.90
2013,10,16,09,48,7.90
2013,10,16,09,49,7.90
2013,10,16,09,50,7.90
2013,10,16,09,51,7.90
2013,10,16,09,52,7.90
2013,10,16,09,53,7.90
2013,10,16,09,54,7.90
2013,10,16,09,55,7.90
2013,10,16,09,56,7.90
2013,10,16,09,57,7.90
2013,10,16,09,58,8.00
2013,10,16,09,59,8.00
2013,10,16,10,00,8.00
2013,10,16,10,01,8.10
2013,10,16,10,02,8.10
2013,10,16,10,03,8.00
2013,10,16,10,04,8.00
2013,10,16,10,05,8.10
2013,10,16,10,06,8.10
2013,10,16,10,07,8.20
2013,10,16,10,08,8.30
2013,10,16,10,09,8.30
2013,10,16,10,10,8.30
2013,10,16,10,11,8.40
2013,10,16,10,12,8.40
2013,10,16,10,13,8.40
2013,10,16,10,14,8.40
2013,10,16,10,15,8.40
2013,10,16,10,16,8.40
2013,10,16,10,17,8.40
2013,10,16,10,18,8.40
2013,10,16,10,19,8.40
2013,10,16,10,20,8.40
2013,10,16,10,21,8.40
2013,10,16,10,22,8.40
2013,10,16,10,23,8.40
2013,10,16,10,24,8.50
2013,10,16,10,25,8.50
2013,10,16,10,26,8.50
2013,10,16,10,27,8.50
2013,10,16,10,28,8.50
2013,10,16,10,29,8.50
2013,10,16,10,30,8.60
2013,10,16,10,31,8.70
2013,10,16,10,32,8.80
2013,10,16,10,33,9.00
2013,10,16,10,34,9.20
2013,10,16,10,35,9.30
2013,10,16,10,36,9.40
2013,10,16,10,37,9.60
2013,10,16,10,38,9.70
2013,10,16,10,39,9.70
2013,10,16,10,40,9.70
2013,10,16,10,41,9.80
2013,10,16,10,42,9.80
2013,10,16,10,43,9.90
2013,10,16,10,44,9.90
2013,10,16,10,45,10.00
2013,10,16,10,46,10.00
2013,10,16,10,47,10.10
2013,10,16,10,48,10.10
2013,10,16,10,49,10.10
2013,10,16,10,50,10.10
2013,10,16,10,51,10.10
2013,10,16,10,52,10.10
2013,10,16,10,53,10.10
2013,10,16,10,54,10.00
2013,10,16,10,55,10.00
2013,10,16,10,56,10.00
2013,10,16,10,57,10.00
2013,10,16,10,58,10.00
2013,10,16,10,59,10.00
2013,10,16,11,00,10.00
2013,10,16,11,01,10.10
2013,10,16,11,02,10.20
2013,10,16,11,03,10.30
2013,10,16,11,04,10.40
2013,10,16,11,05,10.50
2013,10,16,11,06,10.50
2013,10,16,11,07,10.60
2013,10,16,11,08,10.70
2013,10,16,11,09,10.70
2013,10,16,11,10,10.80
2013,10,16,11,11,10.80
2013,10,16,11,12,10.90
2013,10,16,11,13,11.00
2013,10,16,11,14,11.00
2013,10,16,11,15,11.10
2013,10,16,11,16,11.10
2013,10,16,11,17,11.20
2013,10,16,11,18,11.30
2013,10,16,11,19,11.30
2013,10,16,11,20,11.40
2013,10,16,11,21,11.40
2013,10,16,11,22,11.50
2013,10,16,11,23,11.60
2013,10,16,11,24,11.70
2013,10,16,11,25,11.70
2013,10,16,11,26,11.80
2013,10,16,11,27,11.80
2013,10,16,11,28,11.90
2013,10,16,11,29,11.90
2013,10,16,11,30,12.00
2013,10,16,11,31,12.00
2013,10,16,11,32,12.10
2013,10,16,11,33,12.10
2013,10,16,11,34,12.20
2013,10,16,11,35,12.20
2013,10,16,11,36,12.30
2013,10,16,11,37,12.30
2013,10,16,11,38,12.40
2013,10,16,11,39,12.40
2013,10,16,11,40,12.50
2013,10,16,11,41,12.50
2013,10,16,11,42,12.50
2013,10,16,11,43,12.60
2013,10,16,11,44,12.60
2013,10,16,11,45,12.60
2013,10,16,11,46,12.70
2013,10,16,11,47,12.70
2013,10,16,11,48,12.70
2013,10,16,11,49,12.70
2013,10,16,11,50,12.70
2013,10,16,11,51,12.70
2013,10,16,11,52,12.70
2013,10,16,11,53,12.80
2013,10,16,11,54,12.80
2013,10,16,11,55,12.80
2013,10,16,11,56,12.80
2013,10,16,11,57,12.80
2013,10,16,11,58,12.90
2013,10,16,11,59,12.90
2013,10,16,12,00,12.90
2013,10,16,12,01,12.90
2013,10,16,12,02,13.00
2013,10,16,12,03,13.00
2013,10,16,12,04,13.00
2013,10,16,12,05,13.10
2013,10,16,12,06,13.10
2013,10,16,12,07,13.20
2013,10,16,12,08,13.20
2013,10,16,12,09,13.20
2013,10,16,12,10,13.20
2013,10,16,12,11,13.30
2013,10,16,12,12,13.30
2013,10,16,12,13,13.40
2013,10,16,12,14,13.40
2013,10,16,12,15,13.40
2013,10,16,12,16,13.50
2013,10,16,12,17,13.50
2013,10,16,12,18,13.60
2013,10,16,12,19,13.70
2013,10,16,12,20,13.70
2013,10,16,12,21,13.70
2013,10,16,12,22,13.80
2013,10,16,12,23,13.80
2013,10,16,12,24,13.80
2013,10,16,12,25,13.80
2013,10,16,12,26,13.90
2013,10,16,12,27,13.90
2013,10,16,12,28,13.90
2013,10,16,12,29,13.90
2013,10,16,12,30,13.90
2013,10,16,12,31,14.00
2013,10,16,12,32,14.00
2013,10,16,12,33,14.00
2013,10,16,12,34,14.00
2013,10,16,12,35,14.00
2013,10,16,12,36,14.00
2013,10,16,12,37,14.10
2013,10,16,12,38,14.10
2013,10,16,12,39,14.10
2013,10,16,12,40,14.10
2013,10,16,12,41,14.10
2013,10,16,12,42,14.20
2013,10,16,12,43,14.20
2013,10,16,12,44,14.20
2013,10,16,12,45,14.30
2013,10,16,12,46,14.30
2013,10,16,12,47,14.40
2013,10,16,12,48,14.40
2013,10,16,12,49,14.40
2013,10,16,12,50,14.40
2013,10,16,12,51,14.50
2013,10,16,12,52,14.50
2013,10,16,12,53,14.60
2013,10,16,12,54,14.60
2013,10,16,12,55,14.60
2013,10,16,12,56,14.70
2013,10,16,12,57,14.70
2013,10,16,12,58,14.80
2013,10,16,12,59,14.80
2013,10,16,13,00,14.80
2013,10,16,13,01,14.90
2013,10,16,13,02,14.90
2013,10,16,13,03,15.00
2013,10,16,13,04,15.00
2013,10,16,13,05,15.10
2013,10,16,13,06,15.20
2013,10,16,13,07,15.20
2013,10,16,13,08,15.20
2013,10,16,13,09,15.30
2013,10,16,13,10,15.20
2013,10,16,13,11,15.20
2013,10,16,13,12,15.20
2013,10,16,13,13,15.20
2013,10,16,13,14,15.30
2013,10,16,13,15,15.30
2013,10,16,13,16,15.30
2013,10,16,13,17,15.30
2013,10,16,13,18,15.30
2013,10,16,13,19,15.40
2013,10,16,13,20,15.40
2013,10,16,13,21,15.50
2013,10,16,13,22,15.50
2013,10,16,13,23,15.60
2013,10,16,13,24,15.60
2013,10,16,13,25,15.70
2013,10,16,13,26,15.80
2013,10,16,13,27,15.90
2013,10,16,13,28,15.90
2013,10,16,13,29,16.00
2013,10,16,13,30,16.00
2013,10,16,13,31,15.90
2013,10,16,13,32,15.80
2013,10,16,13,33,15.60
2013,10,16,13,34,15.50
2013,10,16,13,35,15.30
2013,10,16,13,36,15.10
2013,10,16,13,37,15.00
2013,10,16,13,38,14.90
2013,10,16,13,39,14.80
2013,10,16,13,40,14.70
2013,10,16,13,41,14.70
2013,10,16,13,42,14.60
2013,10,16,13,43,14.60
2013,10,16,13,44,14.60
2013,10,16,13,45,14.70
2013,10,16,13,46,14.70
2013,10,16,13,47,14.70
2013,10,16,13,48,14.80
2013,10,16,13,49,14.80
2013,10,16,13,50,14.80
2013,10,16,13,51,14.80
2013,10,16,13,52,14.80
2013,10,16,13,53,14.90
2013,10,16,13,54,14.90
2013,10,16,13,55,15.00
2013,10,16,13,56,15.10
2013,10,16,13,57,15.10
2013,10,16,13,58,15.20
2013,10,16,13,59,15.30
2013,10,16,14,00,15.30
2013,10,16,14,01,15.30
2013,10,16,14,02,15.40
2013,10,16,14,03,15.40
2013,10,16,14,04,15.40
2013,10,16,14,05,15.50
2013,10,16,14,06,15.50
2013,10,16,14,07,15.60
2013,10,16,14,08,15.70
2013,10,16,14,09,15.70
2013,10,16,14,10,15.80
2013,10,16,14,11,15.80
2013,10,16,14,12,15.80
2013,10,16,14,13,15.90
2013,10,16,14,14,15.90
2013,10,16,14,15,15.90
2013,10,16,14,16,15.90
2013,10,16,14,17,16.00
2013,10,16,14,18,16.00
2013,10,16,14,19,16.00
2013,10,16,14,20,16.00
2013,10,16,14,21,16.00
2013,10,16,14,22,16.00
2013,10,16,14,23,16.00
2013,10,16,14,24,16.00
2013,10,16,14,25,16.10
2013,10,16,14,26,16.10
2013,10,16,14,27,16.20
2013,10,16,14,28,16.30
2013,10,16,14,29,16.30
2013,10,16,14,30,16.30
2013,10,16,14,31,16.30
2013,10,16,14,32,16.30
2013,10,16,14,33,16.30
2013,10,16,14,34,16.30
2013,10,16,14,35,16.30
2013,10,16,14,36,16.30
2013,10,16,14,37,16.30
2013,10,16,14,38,16.30
2013,10,16,14,39,16.40
2013,10,16,14,40,16.40
2013,10,16,14,41,16.40
2013,10,16,14,42,16.50
2013,10,16,14,43,16.50
2013,10,16,14,44,16.50
2013,10,16,14,45,16.50
2013,10,16,14,46,16.40
2013,10,16,14,47,16.40
2013,10,16,14,48,16.40
2013,10,16,14,49,16.30
2013,10,16,14,50,16.20
2013,10,16,14,51,16.20
2013,10,16,14,52,16.20
2013,10,16,14,53,16.20
2013,10,16,14,54,16.10
2013,10,16,14,55,16.10
2013,10,16,14,56,16.00
2013,10,16,14,57,16.00
2013,10,16,14,58,16.00
2013,10,16,14,59,15.90
2013,10,16,15,00,15.90
2013,10,16,15,01,15.90
2013,10,16,15,02,15.90
2013,10,16,15,03,15.90
2013,10,16,15,04,15.90
2013,10,16,15,05,15.90
2013,10,16,15,06,15.90
2013,10,16,15,07,15.90
2013,10,16,15,08,16.00
2013,10,16,15,09,15.90
2013,10,16,15,10,15.90
2013,10,16,15,11,15.90
2013,10,16,15,12,15.90
2013,10,16,15,13,15.90
2013,10,16,15,14,15.90
2013,10,16,15,15,15.90
2013,10,16,15,16,15.90
2013,10,16,15,17,15.90
2013,10,16,15,18,15.90
2013,10,16,15,19,15.90
2013,10,16,15,20,15.90
2013,10,16,15,21,15.90
2013,10,16,15,22,15.90
2013,10,16,15,23,15.90
2013,10,16,15,24,15.90
2013,10,16,15,25,15.90
2013,10,16,15,26,15.90
2013,10,16,15,27,15.90
2013,10,16,15,28,15.80
2013,10,16,15,29,15.80
2013,10,16,15,30,15.80
2013,10,16,15,31,15.80
2013,10,16,15,32,15.70
2013,10,16,15,33,15.70
2013,10,16,15,34,15.70
2013,10,16,15,35,15.60
2013,10,16,15,36,15.60
2013,10,16,15,37,15.60
2013,10,16,15,38,15.60
2013,10,16,15,39,15.60
2013,10,16,15,40,15.60
2013,10,16,15,41,15.60
2013,10,16,15,42,15.60
2013,10,16,15,43,15.60
2013,10,16,15,44,15.60
2013,10,16,15,45,15.60
2013,10,16,15,46,15.60
2013,10,16,15,47,15.60
2013,10,16,15,48,15.60
2013,10,16,15,49,15.60
2013,10,16,15,50,15.60
2013,10,16,15,51,15.60
2013,10,16,15,52,15.50
2013,10,16,15,53,15.60
2013,10,16,15,54,15.60
2013,10,16,15,55,15.60
2013,10,16,15,56,15.60
2013,10,16,15,57,15.60
2013,10,16,15,58,15.60
2013,10,16,15,59,15.60
2013,10,16,16,00,15.60
2013,10,16,16,01,15.70
2013,10,16,16,02,15.70
2013,10,16,16,03,15.70
2013,10,16,16,04,15.70
2013,10,16,16,05,15.70
2013,10,16,16,06,15.70
2013,10,16,16,07,15.70
2013,10,16,16,08,15.80
2013,10,16,16,09,15.80
2013,10,16,16,10,15.80
2013,10,16,16,11,15.80
2013,10,16,16,12,15.80
2013,10,16,16,13,15.80
2013,10,16,16,14,15.70
2013,10,16,16,15,15.70
2013,10,16,16,16,15.70
2013,10,16,16,17,15.70
2013,10,16,16,18,15.60
2013,10,16,16,19,15.50
2013,10,16,16,20,15.50
2013,10,16,16,21,15.50
2013,10,16,16,22,15.50
2013,10,16,16,23,15.50
2013,10,16,16,24,15.40
2013,10,16,16,25,15.40
2013,10,16,16,26,15.40
2013,10,16,16,27,15.30
2013,10,16,16,28,15.30
2013,10,16,16,29,15.30
2013,10,16,16,30,15.30
2013,10,16,16,31,15.30
2013,10,16,16,32,15.30
2013,10,16,16,33,15.30
2013,10,16,16,34,15.30
2013,10,16,16,35,15.30
2013,10,16,16,36,15.30
2013,10,16,16,37,15.30
2013,10,16,16,38,15.30
2013,10,16,16,39,15.40
2013,10,16,16,40,15.40
2013,10,16,16,41,15.40
2013,10,16,16,42,15.50
2013,10,16,16,43,15.50
2013,10,16,16,44,15.60
2013,10,16,16,45,15.60
2013,10,16,16,46,15.70
2013,10,16,16,47,15.70
2013,10,16,16,48,15.70
2013,10,16,16,49,15.70
2013,10,16,16,50,15.70
2013,10,16,16,51,15.80
2013,10,16,16,52,15.80
2013,10,16,16,53,15.80
2013,10,16,16,54,15.80
2013,10,16,16,55,15.80
2013,10,16,16,56,15.70
2013,10,16,16,57,15.70
2013,10,16,16,58,15.70
2013,10,16,16,59,15.60
2013,10,16,17,00,15.60
2013,10,16,17,01,15.50
2013,10,16,17,02,15.40
2013,10,16,17,03,15.40
2013,10,16,17,04,15.30
2013,10,16,17,05,15.30
2013,10,16,17,06,15.30
2013,10,16,17,07,15.20
2013,10,16,17,08,15.20
2013,10,16,17,09,15.20
2013,10,16,17,10,15.10
2013,10,16,17,11,15.00
2013,10,16,17,12,15.00
2013,10,16,17,13,14.90
2013,10,16,17,14,14.80
2013,10,16,17,15,14.80
2013,10,16,17,16,14.80
2013,10,16,17,17,14.80
2013,10,16,17,18,14.70
2013,10,16,17,19,14.70
2013,10,16,17,20,14.60
2013,10,16,17,21,14.60
2013,10,16,17,22,14.50
2013,10,16,17,23,14.40
2013,10,16,17,24,14.40
2013,10,16,17,25,14.40
2013,10,16,17,26,14.30
2013,10,16,17,27,14.30
2013,10,16,17,28,14.20
2013,10,16,17,29,14.20
2013,10,16,17,30,14.10
2013,10,16,17,31,14.10
2013,10,16,17,32,14.10
2013,10,16,17,33,14.00